This is the latest recevied weather packets stored in our database for station/object W2GRK-15. If no packets are shown the sender has not sent any weather packets the latest 10 day(s).
| Time | Temp. | Humidity | Pressure | Rain* | Wind** | Luminosity | Snow |
|---|---|---|---|---|---|---|---|
| 1777916129 | 21.67° C | 36% | 1011.8 hPa | 0 mm | - | 776 W/m² | - |
| 1777915907 | 21.11° C | 37% | 1011.6 hPa | 0 mm | - | 776 W/m² | - |
| 1777915311 | 21.67° C | 34% | 1011.9 hPa | 0 mm | - | 787 W/m² | - |
| 1777915162 | 21.67° C | 37% | 1011.6 hPa | 0 mm | - | 788 W/m² | - |
| 1777915118 | 21.67° C | 36% | 1011.8 hPa | 0 mm | - | 792 W/m² | - |
| 1777914985 | 21.67° C | 36% | 1011.9 hPa | 0 mm | - | 791 W/m² | - |
| 1777914679 | 21.11° C | 37% | 1012.2 hPa | 0 mm | - | 787 W/m² | - |
| 1777914631 | 20.56° C | 38% | 1012 hPa | 0 mm | - | 789 W/m² | - |
| 1777914103 | 20.56° C | 36% | 1012.2 hPa | 0 mm | - | 794 W/m² | - |
| 1777913970 | 21.11° C | 37% | 1012.2 hPa | 0 mm | - | 795 W/m² | - |
| 1777913906 | 21.11° C | 38% | 1012.1 hPa | 0 mm | - | 796 W/m² | - |
| 1777913777 | 21.11° C | 36% | 1012.3 hPa | 0 mm | - | 803 W/m² | - |
| 1777913181 | 21.11° C | 37% | 1012.5 hPa | 0 mm | - | 801 W/m² | - |
| 1777913108 | 20.56° C | 38% | 1012.3 hPa | 0 mm | - | 805 W/m² | - |
| 1777912650 | 21.11° C | 37% | 1012.4 hPa | 0 mm | - | 813 W/m² | - |
| 1777911506 | 20.56° C | 36% | 1012.8 hPa | 0 mm | - | 811 W/m² | - |
| 1777910958 | 20° C | 38% | 1012.8 hPa | 0 mm | - | 805 W/m² | - |
| 1777910737 | 19.44° C | 36% | 1012.9 hPa | 0 mm | - | 813 W/m² | - |
| 1777910604 | 19.44° C | 38% | 1013 hPa | 0 mm | - | 811 W/m² | - |
| 1777910491 | 19.44° C | 37% | 1013 hPa | 0 mm | - | 810 W/m² | - |
| 1777909525 | 19.44° C | 39% | 1013.1 hPa | 0 mm | - | 799 W/m² | - |
| 1777909170 | 20° C | 39% | 1013.3 hPa | 0 mm | - | 824 W/m² | - |
| 1777908381 | 19.44° C | 39% | 1013.3 hPa | 0 mm | - | 767 W/m² | - |
| 1777908139 | 19.44° C | 37% | 1013.3 hPa | 0 mm | - | 760 W/m² | - |
| 1777907849 | 19.44° C | 39% | 1013.5 hPa | 0 mm | - | 747 W/m² | - |
* Rain latest hour (hover to see other rain measurements)
** Current wind speed in m/s (hover to see current wind gust speed)